Location: *
(46.0770°N, 1.6444°E)
Time: 01:02:46
(UTC+00:00)

Cosmos 2333 Rocket - Pass Details

Date: 16 September 2019
Orbit: 840 x 862 km, 70.8° (Epoch: 22 October)

Event Time Altitude Azimuth Distance (km) Brightness Sun altitude
Rises 19:55:56 0° 328° (NNW) 3,421 6.3 -19.6°
Reaches altitude 10° 19:58:27 10° 323° (NW) 2,485 5.6 -20.0°
Maximum altitude 20:03:53 47° 251° (WSW) 1,122 3.1 -20.8°
Enters shadow 20:08:30 14° 182° (S) 2,192 4.1 -21.5°
